User: anonymous   Login
Location: Theydon Bois
(51.6750°N, 0.1050°E)
Time: 06:36:44
(UTC+00:00)
Language:

SL-8 Rocket - Orbit

View from above orbital plane
View from above orbital plane
View from above satellite
View from above satellite

Ground track
Ground track

The orbit data is extracted from the following two-line orbital elements,

1 21088U 91006B   17348.26512102 +.00000026 +00000-0 +10938-4 0  9990
2 21088 082.9437 246.3558 0022455 172.8856 301.4419 13.77080035350118
Epoch (UTC): 14 December 2017 06:21:46
Eccentricity: 0.0022455
inclination: 82.9437°
perigee height: 958 km
apogee height: 991 km
right ascension of ascending node: 246.3558°
argument of perigee: 172.8856°
revolutions per day: 13.77080035
mean anomaly at epoch: 301.4419°
orbit number at epoch: 35011

The dashed part of the orbit path shows where the satellite is in the earth's shadow,  

DLR